FW9075 Weather Reports


Display with metric or nautical units.
time (UTC)temp
F
wind
direction
speed
MPH
gust
MPH
rain 1hr
in
rain 24hr
in
rain mn
in
humidity
%
barometer
mb
20260507224006 50 0 0.0 2.0 0.00 0.00 0.00 86 1015.0
20260507223506 50 69 1.0 2.0 0.00 0.00 0.00 86 1015.1
20260507223006 51 80 1.0 3.0 0.00 0.00 0.00 86 1015.1
20260507222506 51 0 0.0 3.0 0.00 0.00 0.00 85 1015.0
20260507222006 51 0 0.0 2.0 0.00 0.00 0.00 85 1015.0
20260507221506 51 0 0.0 2.0 0.00 0.00 0.00 85 1015.0
20260507221006 51 0 0.0 2.0 0.00 0.00 0.00 85 1015.1
20260507220505 51 0 0.0 2.0 0.00 0.00 0.00 84 1015.1
20260507220006 51 195 1.0 3.0 0.00 0.00 0.00 84 1015.1
20260507215505 51 195 1.0 3.0 0.00 0.00 0.00 84 1015.2
20260507215006 51 179 1.0 3.0 0.00 0.00 0.00 84 1015.2
20260507214506 51 172 1.0 3.0 0.00 0.00 0.00 84 1015.2
20260507214006 51 154 1.0 6.0 0.00 0.00 0.00 84 1015.2
20260507213506 51 142 2.0 6.0 0.00 0.00 0.00 83 1015.1
20260507213006 51 127 2.0 6.0 0.00 0.00 0.00 83 1015.1
20260507212506 51 122 2.0 6.0 0.00 0.00 0.00 83 1015.1
20260507211006 51 136 1.0 7.0 0.00 0.00 0.00 82 1015.0
20260507210506 50 142 1.0 7.0 0.00 0.00 0.00 81 1014.9
20260507210006 50 0 0.0 2.0 0.00 0.00 0.00 80 1014.9
20260507205505 50 0 0.0 2.0 0.00 0.00 0.00 79 1014.9
20260507205006 51 158 1.0 2.0 0.00 0.00 0.00 78 1014.9
20260507204506 51 131 1.0 6.0 0.00 0.00 0.00 77 1014.9
20260507204006 51 127 1.0 6.0 0.00 0.00 0.00 76 1014.8
20260507203505 51 136 1.0 5.0 0.00 0.00 0.00 76 1014.7
20260507203006 51 133 1.0 5.0 0.00 0.00 0.00 75 1014.6
20260507202006 51 93 1.0 5.0 0.00 0.00 0.00 75 1014.5
20260507201506 51 83 1.0 5.0 0.00 0.00 0.00 76 1014.5
20260507201006 51 77 1.0 5.0 0.00 0.00 0.00 75 1014.5
20260507200506 51 72 1.0 3.0 0.00 0.00 0.00 75 1014.3
20260507195506 51 0 0.0 3.0 0.00 0.00 0.00 74 1014.4
20260507195006 52 0 0.0 1.0 0.00 0.00 0.00 72 1014.5
20260507194006 53 0 0.0 1.0 0.00 0.00 0.00 71 1014.4
20260507193506 53 0 0.0 1.0 0.00 0.00 0.00 70 1014.3
20260507193006 54 0 0.0 1.0 0.00 0.00 0.00 69 1014.3
20260507192506 54 0 0.0 1.0 0.00 0.00 0.00 69 1014.2
20260507192006 54 224 1.0 2.0 0.00 0.00 0.00 68 1014.2
20260507191506 55 206 1.0 2.0 0.00 0.00 0.00 67 1014.2
20260507191006 55 162 1.0 2.0 0.00 0.00 0.00 66 1014.2
20260507190505 56 182 2.0 6.0 0.00 0.00 0.00 65 1014.1
20260507190006 56 200 2.0 6.0 0.00 0.00 0.00 63 1014.1
20260507185506 56 200 2.0 6.0 0.00 0.00 0.00 61 1014.0
20260507184505 58 199 2.0 6.0 0.00 0.00 0.00 58 1014.0
20260507184005 58 196 2.0 7.0 0.00 0.00 0.00 56 1013.9
20260507183506 58 188 2.0 7.0 0.00 0.00 0.00 54 1013.9
20260507183006 59 194 2.0 6.0 0.00 0.00 0.00 51 1013.9
20260507182006 60 186 1.0 5.0 0.00 0.00 0.00 48 1013.8
20260507181506 60 197 1.0 5.0 0.00 0.00 0.00 47 1013.8
20260507181006 61 187 2.0 6.0 0.00 0.00 0.00 46 1013.8
20260507180506 61 187 2.0 6.0 0.00 0.00 0.00 46 1013.7
20260507175506 62 177 2.0 6.0 0.00 0.00 0.00 43 1013.8
20260507175006 63 182 2.0 6.0 0.00 0.00 0.00 43 1013.8
20260507174506 63 185 4.0 8.0 0.00 0.00 0.00 45 1013.8
20260507173506 64 189 4.0 7.0 0.00 0.00 0.00 42 1013.7
20260507173006 64 191 2.0 7.0 0.00 0.00 0.00 45 1013.7
20260507172506 64 196 2.0 8.0 0.00 0.00 0.00 45 1013.7
20260507172006 64 203 4.0 8.0 0.00 0.00 0.00 44 1013.7
20260507171506 64 218 4.0 8.0 0.00 0.00 0.00 45 1013.7
20260507171006 64 209 5.0 9.0 0.00 0.00 0.00 44 1013.7
20260507170506 64 208 5.0 11.0 0.00 0.00 0.00 43 1013.7
20260507165506 64 221 5.0 10.0 0.00 0.00 0.00 42 1013.8
20260507165006 64 200 5.0 10.0 0.00 0.00 0.00 43 1013.8
20260507164505 64 202 5.0 10.0 0.00 0.00 0.00 42 1013.8
20260507164006 64 216 5.0 11.0 0.00 0.00 0.00 42 1013.8
20260507163506 64 225 5.0 13.0 0.00 0.00 0.00 42 1013.8
20260507163006 64 209 5.0 13.0 0.00 0.00 0.00 42 1013.9
20260507162505 64 195 5.0 11.0 0.00 0.00 0.00 41 1013.9
20260507161506 64 222 6.0 11.0 0.00 0.00 0.00 42 1014.0
20260507161005 64 224 6.0 11.0 0.00 0.00 0.00 42 1014.0
20260507160506 65 222 5.0 10.0 0.00 0.00 0.00 42 1013.9
20260507160006 65 215 5.0 10.0 0.00 0.00 0.00 42 1014.0
20260507155006 65 185 5.0 11.0 0.00 0.00 0.00 42 1014.0
20260507154506 65 175 5.0 11.0 0.00 0.00 0.00 44 1013.9
20260507154008 64 189 6.0 13.0 0.00 0.00 0.00 42 1014.0
20260507153506 64 190 5.0 13.0 0.00 0.00 0.00 43 1014.0
20260507153006 64 182 5.0 11.0 0.00 0.00 0.00 44 1014.1
20260507152506 65 187 5.0 11.0 0.00 0.00 0.00 45 1014.1
20260507152006 64 213 5.0 9.0 0.00 0.00 0.00 44 1014.1
20260507151506 64 211 6.0 13.0 0.00 0.00 0.00 44 1014.2
20260507151006 64 211 6.0 13.0 0.00 0.00 0.00 44 1014.2
20260507150505 64 220 5.0 11.0 0.00 0.00 0.00 45 1014.2
20260507145506 63 200 5.0 13.0 0.00 0.00 0.00 47 1014.2
20260507145006 62 179 4.0 8.0 0.00 0.00 0.00 49 1014.2
20260507144506 62 103 2.0 7.0 0.00 0.00 0.00 63 1014.2
20260507144006 61 118 2.0 7.0 0.00 0.00 0.00 68 1014.2
20260507142006 60 85 2.0 8.0 0.00 0.00 0.00 71 1014.4
20260507141505 60 83 2.0 8.0 0.00 0.00 0.00 71 1014.5
20260507141007 60 90 2.0 7.0 0.00 0.00 0.00 71 1014.6
20260507140506 60 85 2.0 7.0 0.00 0.00 0.00 73 1014.6
20260507140006 58 81 2.0 7.0 0.00 0.00 0.00 78 1014.6
20260507135506 57 85 2.0 8.0 0.00 0.00 0.00 79 1014.6
20260507135006 56 89 4.0 9.0 0.00 0.00 0.00 80 1014.6
20260507134505 56 84 4.0 9.0 0.00 0.00 0.00 80 1014.7
20260507134006 55 79 2.0 7.0 0.00 0.00 0.00 81 1014.6
20260507133506 55 83 4.0 8.0 0.00 0.00 0.00 81 1014.6
20260507133006 55 74 4.0 8.0 0.00 0.00 0.00 80 1014.6
20260507132506 55 71 5.0 10.0 0.00 0.00 0.00 81 1014.6
20260507132006 55 79 6.0 11.0 0.00 0.00 0.00 81 1014.7
20260507131006 56 79 6.0 11.0 0.00 0.00 0.00 79 1014.8
20260507130006 56 83 5.0 10.0 0.00 0.00 0.00 76 1014.8
20260507125505 57 97 4.0 10.0 0.00 0.00 0.00 74 1014.7
20260507125006 58 105 2.0 10.0 0.00 0.00 0.00 71 1014.7
20260507124506 59 123 4.0 6.0 0.00 0.00 0.00 66 1014.7
20260507124006 59 134 4.0 8.0 0.00 0.00 0.00 61 1014.7
20260507123506 59 133 2.0 8.0 0.00 0.00 0.00 61 1014.7
20260507123006 59 144 1.0 7.0 0.00 0.00 0.00 63 1014.7
20260507122505 58 157 2.0 6.0 0.00 0.00 0.00 65 1014.7
20260507122006 58 158 4.0 7.0 0.00 0.00 0.00 64 1014.8
20260507121506 58 166 4.0 8.0 0.00 0.00 0.00 64 1014.7
20260507120006 59 171 5.0 10.0 0.00 0.00 0.00 62 1014.7
20260507115506 59 173 5.0 11.0 0.00 0.00 0.00 61 1014.7
20260507115005 60 167 4.0 11.0 0.00 0.00 0.00 57 1014.7
20260507114506 60 165 2.0 9.0 0.00 0.00 0.00 55 1014.7
20260507114006 60 173 2.0 7.0 0.00 0.00 0.00 54 1014.7
20260507113506 60 172 2.0 7.0 0.00 0.00 0.00 56 1014.7
20260507113006 60 175 2.0 7.0 0.00 0.00 0.00 52 1014.7
20260507112506 60 202 2.0 7.0 0.00 0.00 0.00 53 1014.7
20260507111506 61 192 4.0 8.0 0.00 0.00 0.00 53 1014.7
20260507111006 61 184 5.0 8.0 0.00 0.00 0.00 55 1014.7
20260507110006 62 161 4.0 10.0 0.00 0.00 0.00 53 1014.7
20260507105506 62 164 5.0 11.0 0.00 0.00 0.00 53 1014.8
20260507105006 63 173 5.0 11.0 0.00 0.00 0.00 54 1014.8
20260507104506 62 155 4.0 8.0 0.00 0.00 0.00 57 1014.7
20260507104005 61 163 2.0 6.0 0.00 0.00 0.00 59 1014.8
20260507103505 60 192 4.0 7.0 0.00 0.00 0.00 61 1014.8
20260507103006 60 208 4.0 7.0 0.00 0.00 0.00 60 1014.8
20260507102007 60 204 4.0 7.0 0.00 0.00 0.00 63 1014.9
20260507101507 60 211 2.0 7.0 0.00 0.00 0.00 63 1014.9
20260507101006 60 206 2.0 7.0 0.00 0.00 0.00 64 1014.9
20260507100506 60 194 2.0 7.0 0.00 0.00 0.00 61 1014.9
20260507100006 60 209 2.0 7.0 0.00 0.00 0.00 58 1014.9
20260507095506 60 225 2.0 6.0 0.00 0.00 0.00 60 1014.8
20260507095006 60 222 4.0 8.0 0.00 0.00 0.00 62 1014.9
20260507094506 60 203 4.0 8.0 0.00 0.00 0.00 60 1014.9
20260507094006 61 177 4.0 8.0 0.00 0.00 0.00 59 1014.9
20260507093006 60 171 4.0 7.0 0.00 0.00 0.00 59 1014.9
20260507092506 60 163 4.0 9.0 0.00 0.00 0.00 57 1014.9
20260507092006 60 144 4.0 9.0 0.00 0.00 0.00 60 1014.9
20260507091007 60 152 2.0 7.0 0.00 0.00 0.00 65 1014.9
20260507090506 60 140 2.0 8.0 0.00 0.00 0.00 64 1014.9
20260507090006 59 193 2.0 8.0 0.00 0.00 0.00 66 1014.9
20260507085505 59 223 2.0 7.0 0.00 0.00 0.00 69 1015.0
20260507085006 58 199 2.0 7.0 0.00 0.00 0.00 69 1015.0
20260507084506 58 191 4.0 8.0 0.00 0.00 0.00 69 1015.1
20260507084006 58 165 4.0 8.0 0.00 0.00 0.00 69 1015.1
20260507083505 58 141 4.0 7.0 0.00 0.00 0.00 72 1015.0
20260507083006 58 153 4.0 7.0 0.00 0.00 0.00 71 1015.0
20260507082505 58 179 2.0 6.0 0.00 0.00 0.00 72 1015.0
20260507082006 57 175 4.0 8.0 0.00 0.00 0.00 74 1015.0
20260507081505 56 164 2.0 8.0 0.00 0.00 0.00 73 1015.1
20260507081006 56 131 1.0 5.0 0.00 0.00 0.00 75 1015.0
20260507080505 55 105 1.0 3.0 0.00 0.00 0.00 77 1015.1
20260507075505 54 72 1.0 3.0 0.00 0.00 0.00 80 1015.1
20260507075006 53 88 1.0 3.0 0.00 0.00 0.00 81 1015.1
20260507074505 52 102 1.0 3.0 0.00 0.00 0.00 81 1015.1
20260507074005 51 0 0.0 2.0 0.00 0.00 0.00 82 1015.1
20260507073506 51 0 0.0 2.0 0.00 0.00 0.00 82 1015.1
20260507073006 51 67 1.0 3.0 0.00 0.00 0.00 83 1015.1
20260507072505 50 97 1.0 3.0 0.00 0.00 0.00 84 1015.1
20260507072006 50 0 0.0 3.0 0.00 0.00 0.00 85 1015.0
20260507071505 49 0 0.0 3.0 0.00 0.00 0.00 86 1015.0
20260507070506 48 0 0.0 2.0 0.00 0.00 0.00 87 1015.0
20260507070010 48 58 1.0 3.0 0.00 0.00 0.00 88 1015.0
20260507065506 47 32 1.0 5.0 0.00 0.00 0.00 88 1015.0
20260507064506 47 290 1.0 3.0 0.00 0.00 0.00 90 1014.9
20260507064006 47 283 1.0 3.0 0.00 0.00 0.00 90 1014.9
20260507063006 46 251 1.0 3.0 0.00 0.00 0.00 91 1014.9
20260507062506 46 255 1.0 5.0 0.00 0.00 0.00 91 1014.8
20260507062008 45 257 2.0 5.0 0.00 0.00 0.00 92 1014.9
20260507061006 45 339 2.0 7.0 0.00 0.00 0.00 93 1014.8
20260507060006 44 63 4.0 9.0 0.00 0.00 0.00 93 1014.4
20260507055506 44 60 2.0 8.0 0.00 0.00 0.00 93 1014.4
20260507054506 44 48 2.0 6.0 0.00 0.00 0.00 94 1014.5
20260507054006 43 42 1.0 6.0 0.00 0.00 0.00 94 1014.5
20260507053506 43 32 1.0 3.0 0.00 0.00 0.00 94 1014.4
20260507053006 43 33 1.0 3.0 0.00 0.00 0.00 94 1014.5
20260507052505 43 33 1.0 3.0 0.00 0.00 0.00 94 1014.5
20260507052006 43 31 1.0 2.0 0.00 0.00 0.00 94 1014.4
20260507051006 42 18 1.0 3.0 0.00 0.00 0.00 94 1014.4
20260507050506 42 0 0.0 2.0 0.00 0.00 0.00 94 1014.4
20260507045506 42 0 0.0 2.0 0.00 0.00 0.00 94 1014.4
20260507045006 42 0 0.0 2.0 0.00 0.00 0.00 94 1014.4
20260507044505 42 0 0.0 2.0 0.00 0.00 0.00 94 1014.4
20260507044005 41 0 0.0 2.0 0.00 0.00 0.00 94 1014.4
20260507043506 41 0 0.0 1.0 0.00 0.00 0.00 94 1014.4
20260507043006 41 0 0.0 1.0 0.00 0.00 0.00 94 1014.4
20260507042506 41 0 0.0 1.0 0.00 0.00 0.00 94 1014.4
20260507042006 41 0 0.0 2.0 0.00 0.00 0.00 94 1014.4
20260507041006 40 0 0.0 1.0 0.00 0.00 0.00 94 1014.4
20260507040506 40 0 0.0 1.0 0.00 0.00 0.00 94 1014.4
20260507040006 40 0 0.0 1.0 0.00 0.00 0.00 94 1014.4
20260507035506 40 0 0.0 1.0 0.00 0.00 0.00 94 1014.4
20260507035006 40 0 0.0 1.0 0.00 0.00 0.00 94 1014.4
20260507034506 39 0 0.0 1.0 0.00 0.00 0.00 94 1014.4
20260507034005 39 0 0.0 0.0 0.00 0.00 0.00 94 1014.4
20260507033506 39 0 0.0 0.0 0.00 0.00 0.00 94 1014.4
20260507033006 39 0 0.0 2.0 0.00 0.00 0.00 94 1014.3
20260507032506 39 0 0.0 2.0 0.00 0.00 0.00 94 1014.4
20260507032005 38 0 0.0 2.0 0.00 0.00 0.00 94 1014.4
20260507031505 38 0 0.0 2.0 0.00 0.00 0.00 93 1014.3
20260507030506 38 0 0.0 0.0 0.00 0.00 0.00 93 1014.3
20260507030006 38 0 0.0 0.0 0.00 0.00 0.00 93 1014.3
20260507025506 38 0 0.0 1.0 0.00 0.00 0.00 93 1014.3
20260507025006 38 0 0.0 1.0 0.00 0.00 0.00 92 1014.2
20260507024506 38 0 0.0 2.0 0.00 0.00 0.00 92 1014.2
20260507024006 38 0 0.0 2.0 0.00 0.00 0.00 92 1014.2
20260507023506 38 0 0.0 2.0 0.00 0.00 0.00 92 1014.2
20260507023006 38 0 0.0 1.0 0.00 0.00 0.00 92 1014.2
20260507022506 38 0 0.0 1.0 0.00 0.00 0.00 92 1014.2
20260507022006 38 0 0.0 1.0 0.00 0.00 0.00 92 1014.2
20260507021006 39 0 0.0 2.0 0.00 0.00 0.00 92 1014.2
20260507020506 39 53 1.0 2.0 0.00 0.00 0.00 92 1014.2
20260507020006 39 52 1.0 2.0 0.00 0.00 0.00 92 1014.2
20260507015506 39 0 0.0 2.0 0.00 0.00 0.00 91 1014.2
20260507015006 39 0 0.0 2.0 0.00 0.00 0.00 91 1014.2
20260507014506 39 0 0.0 2.0 0.00 0.00 0.00 91 1014.1
20260507014006 39 52 1.0 2.0 0.00 0.00 0.00 91 1014.1
20260507013505 39 0 0.0 2.0 0.00 0.00 0.00 91 1014.1
20260507013005 39 0 0.0 2.0 0.00 0.00 0.00 91 1014.1
20260507012508 39 0 0.0 2.0 0.00 0.00 0.00 91 1014.1
20260507012006 40 53 1.0 2.0 0.00 0.00 0.00 91 1014.1
20260507011506 40 54 1.0 2.0 0.00 0.00 0.00 91 1014.1
20260507010506 40 0 0.0 3.0 0.00 0.00 0.00 90 1014.1
20260507004506 40 37 1.0 5.0 0.00 0.00 0.00 90 1014.2
20260507004006 40 38 1.0 5.0 0.00 0.00 0.00 90 1014.1
20260507003506 40 44 1.0 3.0 0.00 0.00 0.00 90 1014.1
20260507002506 40 33 2.0 5.0 0.00 0.00 0.00 90 1014.2
20260507001506 40 0 0.0 2.0 0.00 0.00 0.00 89 1014.2
20260507001006 40 0 0.0 2.0 0.00 0.00 0.00 89 1014.2
20260507000506 41 0 0.0 1.0 0.00 0.00 0.00 89 1014.2
20260507000006 41 0 0.0 1.0 0.00 0.00 0.00 88 1014.2
20260506235506 41 0 0.0 0.0 0.00 0.00 0.00 88 1014.2
20260506235007 41 0 0.0 0.0 0.00 0.00 0.00 88 1014.2
20260506234507 41 0 0.0 2.0 0.00 0.00 0.00 87 1014.2
20260506234006 42 0 0.0 2.0 0.00 0.00 0.00 87 1014.1
20260506233506 42 0 0.0 1.0 0.00 0.00 0.00 87 1014.1
20260506233014 42 0 0.0 1.0 0.00 0.00 0.00 87 1014.1
20260506232506 42 0 0.0 1.0 0.00 0.00 0.00 87 1014.1
20260506232006 42 0 0.0 1.0 0.00 0.00 0.00 86 1014.1
20260506231505 42 0 0.0 0.0 0.00 0.00 0.00 87 1014.1
20260506231005 43 0 0.0 0.0 0.00 0.00 0.00 86 1014.1
20260506230505 43 0 0.0 0.0 0.00 0.00 0.00 86 1014.1
20260506230007 43 0 0.0 1.0 0.00 0.00 0.00 85 1014.0
20260506225506 43 0 0.0 1.0 0.00 0.00 0.00 84 1014.0
20260506225006 43 0 0.0 0.0 0.00 0.00 0.00 84 1014.0
20260506224506 44 0 0.0 1.0 0.00 0.00 0.00 84 1014.0